Regional Weather Roundup
Issued by NWS

Home | Current Version | Previous Version | Text Only | Print | Product List | Glossary On
Versions: 1 2 3 4 5 6 7 8 9 10 11 12 13 14 15 16 17 18 19 20 21 22 23 24 25 26 27 28 29 30 31 32 33 34 35 36 37 38 39 40 41 42 43 44 45 46
000
ASUS46 KSEW 220910
RWRWA

WASHINGTON REGIONAL WEATHER ROUNDUP
NATIONAL WEATHER SERVICE SEATTLE WA
200 AM PDT WED OCT 22 2014

NOTE:"FAIR" INDICATES FEW OR NO CLOUDS BELOW 12,000 FEET WITH NO
SIGNIFICANT WEATHER AND/OR OBSTRUCTIONS TO VISIBILITY.

WAZ505-507>509-221000-
SEATTLE, TACOMA, EVERETT, AND VICINITY

CITY           SKY/WX    TMP DP  RH WIND       PRES   REMARKS
EVERETT        LGT RAIN  55  47  74 SE13      29.68F
BOEING FIELD   LGT RAIN  59  48  67 SE8       29.68F
RENTON         LGT RAIN  56  49  77 E5        29.68F
SEATAC AIRPORT CLOUDY    60  45  57 S15G22    29.70F
JBLM-MCCHORD   CLOUDY    57  48  71 S15G26    29.70F
PUYALLUP       NOT AVBL
JBLM-FT LEWIS  DRIZZLE   57  49  74 SE15      29.70F
TACOMA NARROWS CLOUDY    57  48  72 S10       29.70F
$$

WAZ001-503-506-510-514-515-221000-
NORTH INTERIOR

CITY           SKY/WX    TMP DP  RH WIND       PRES   REMARKS
BELLINGHAM     CLOUDY    62  44  51 SE28G40   29.58F
FRIDAY HARBOR  NOT AVBL
EASTSOUND      LGT RAIN  59  48  67 S14G26    29.54R
PORT ANGELES   RAIN      54  51  90 N5        29.51F
NAS WHIDBEY    CLOUDY    59  48  67 SE38G48   29.62F
BURLINGTON     CLOUDY   N/A N/A N/A SE17G28   29.65F
$$

WAZ020-022-039-040-504-511-512-221000-
SOUTHWEST INTERIOR

CITY           SKY/WX    TMP DP  RH WIND       PRES   REMARKS
SHELTON        LGT RAIN  56  48  74 SE16G30   29.66F
OLYMPIA        CLOUDY    56  48  74 S16G26    29.69F
CHEHALIS         N/A     55  52  88 S10G17    29.72F
KELSO          CLOUDY    57  46  67 S17G24    29.79S
VANCOUVER      CLOUDY    56  51  84 SE10G18   29.81F
SCAPPOOSE, OR  LGT RAIN  54  52  93 S3        29.79F
PORTLAND, OR   LGT RAIN  55  54  96 E14       29.81F
$$

WAZ021-516-517-221000-
WASHINGTON COAST

CITY           SKY/WX    TMP DP  RH WIND       PRES   REMARKS
FORKS          HVY RAIN  56  55  97 SW20G30   29.53S VSB 1/2
HOQUIAM        RAIN      57  54  89 SE23G33   29.64F FOG
ASTORIA, OR    LGT RAIN  59  54  83 S24G45    29.67F
$$

WAZ019-023-024-040-518-519-221000-
CASCADE MOUNTAINS AND COLUMBIA GORGE

CITY           SKY/WX    TMP DP  RH WIND       PRES   REMARKS
STAMPEDE PASS  NOT AVBL
TROUTDALE, OR  LGT RAIN  55  51  86 E9        29.82F
THE DALLES, OR CLOUDY    51  46  83 E6        29.88F
$$

WAZ026-027-041>044-520-521-221000-
EAST SLOPES

CITY           SKY/WX    TMP DP  RH WIND       PRES   REMARKS
OMAK           PTCLDY    48  40  73 SW8       29.88S
WENATCHEE      CLOUDY    52  41  66 E12       29.86S
ELLENSBURG     CLOUDY    50  42  74 E5        29.87F
YAKIMA         CLOUDY    46  41  82 NW5       29.88F
$$

WAZ028-034-035-221000-
COLUMBIA BASIN

CITY           SKY/WX    TMP DP  RH WIND       PRES   REMARKS
EPHRATA        MOCLDY    45  42  89 N7        29.89S
MOSES LAKE     MOCLDY    46  41  82 SE8       29.90S
PASCO          CLOUDY    47  44  90 SE6       29.90F
HERMISTON, OR  CLOUDY    50  41  71 SE7       29.89F
$$

WAZ036>038-221000-
NORTHEAST WASHINGTON

CITY           SKY/WX    TMP DP  RH WIND       PRES   REMARKS
SPOKANE GEIGER CLEAR     43  37  79 S8        29.97S
SPOKANE FELTS  CLEAR     46  39  76 NE5       29.98S
FAIRCHILD AFB  CLEAR     41  37  84 SE7       29.96F
COEURDALENE,ID MOCLDY    45  41  87 S6        29.99R
DEER PARK      PTCLDY    39  38  96 CALM      29.98S
$$

WAZ029>033-221000-
SOUTHEAST WASHINGTON

CITY           SKY/WX    TMP DP  RH WIND       PRES   REMARKS
PULLMAN        MOCLDY    45  39  79 E14       30.00F
LEWISTON, ID   PTCLDY    45  38  76 SE7       30.00S
WALLA WALLA    PTCLDY    50  36  58 CALM      29.91F
PENDLETON, OR  MOCLDY    49  36  61 CALM      29.91F
$$



USA.gov is the U.S. government's official web portal to all federal, state and local government web resources and services.